TAM1457 SBPL-SBSV

Flight info

Callsign TAM1457
Flight time N/A
Altitude 34000
Route EDMUP DCT DORMU
Aircraft A319/M-SDE3FGHIRWY/LB1

Departure

Time 2026-04-23 00:20
Airport Senador Nilo Coelho Airport (SBPL)

Arrival

Time N/A
Airport Deputado Luiz Eduardo Magalhães International Airport (SBSV)
Time Latitude Longitude Altitude Speed Heading
2026-04-22 23:48 -9.36604 -40.56522 1256 ft 0 kts 199°
2026-04-23 00:03 -9.36603 -40.56522 1245 ft 0 kts 199°
2026-04-23 00:10 -9.36591 -40.56518 1278 ft 4 kts 199°
2026-04-23 00:10 -9.36572 -40.56510 1277 ft 2 kts 216°
2026-04-23 00:10 -9.36564 -40.56502 1274 ft 2 kts 268°
2026-04-23 00:11 -9.36568 -40.56485 1273 ft 4 kts 290°
2026-04-23 00:11 -9.36564 -40.56495 1276 ft 3 kts 289°
2026-04-23 00:11 -9.36561 -40.56504 1273 ft 0 kts 289°
2026-04-23 00:14 -9.36559 -40.56509 1274 ft 3 kts 289°
2026-04-23 00:15 -9.36547 -40.56544 1279 ft 7 kts 289°
2026-04-23 00:15 -9.36508 -40.56584 1276 ft 10 kts 356°
2026-04-23 00:15 -9.36437 -40.56563 1273 ft 13 kts 19°
2026-04-23 00:15 -9.36356 -40.56600 1274 ft 16 kts 290°
2026-04-23 00:16 -9.36319 -40.56706 1274 ft 16 kts 290°
2026-04-23 00:16 -9.36279 -40.56816 1275 ft 17 kts 290°
2026-04-23 00:16 -9.36238 -40.56939 1273 ft 21 kts 288°
2026-04-23 00:16 -9.36187 -40.57091 1275 ft 24 kts 289°
2026-04-23 00:17 -9.36131 -40.57258 1277 ft 26 kts 289°
2026-04-23 00:17 -9.36070 -40.57435 1275 ft 27 kts 290°
2026-04-23 00:17 -9.36005 -40.57619 1270 ft 29 kts 289°
2026-04-23 00:17 -9.35940 -40.57811 1272 ft 27 kts 289°
2026-04-23 00:18 -9.35898 -40.57933 1275 ft 10 kts 288°
2026-04-23 00:18 -9.35893 -40.57950 1272 ft 0 kts 288°
2026-04-23 00:18 -9.35890 -40.57958 1271 ft 7 kts 288°
2026-04-23 00:18 -9.35898 -40.58059 1271 ft 15 kts 262°
2026-04-23 00:19 -9.35853 -40.58068 1271 ft 6 kts 89°
2026-04-23 00:19 -9.35862 -40.58043 1277 ft 0 kts 110°
2026-04-23 00:19 -9.35864 -40.58038 1277 ft 11 kts 110°
2026-04-23 00:20 -9.35985 -40.57683 1273 ft 94 kts 109°
2026-04-23 00:20 -9.36278 -40.56829 1280 ft 160 kts 110°
2026-04-23 00:20 -9.36651 -40.55739 1882 ft 164 kts 111°
2026-04-23 00:20 -9.37022 -40.54653 2691 ft 162 kts 113°
2026-04-23 00:21 -9.37529 -40.53635 3334 ft 168 kts 134°
2026-04-23 00:21 -9.38648 -40.53127 3557 ft 193 kts 169°
2026-04-23 00:21 -9.40023 -40.53040 4035 ft 200 kts 172°
2026-04-23 00:21 -9.41426 -40.52929 4559 ft 205 kts 171°
2026-04-23 00:22 -9.42921 -40.52798 4854 ft 229 kts 171°
2026-04-23 00:22 -9.44589 -40.52644 5230 ft 252 kts 171°
2026-04-23 00:22 -9.46389 -40.52478 5849 ft 265 kts 172°
2026-04-23 00:22 -9.48251 -40.52311 6641 ft 271 kts 172°
2026-04-23 00:23 -9.50147 -40.52141 7410 ft 276 kts 172°
2026-04-23 00:23 -9.52073 -40.51965 8193 ft 280 kts 172°
2026-04-23 00:23 -9.54028 -40.51786 8993 ft 284 kts 172°
2026-04-23 00:23 -9.56009 -40.51606 9777 ft 288 kts 172°
2026-04-23 00:24 -9.58029 -40.51420 10294 ft 301 kts 172°
2026-04-23 00:24 -9.60189 -40.51217 10514 ft 322 kts 172°
2026-04-23 00:24 -9.62461 -40.51003 10997 ft 331 kts 172°
2026-04-23 00:24 -9.64776 -40.50789 11600 ft 337 kts 173°
2026-04-23 00:25 -9.67125 -40.50570 12229 ft 341 kts 172°
2026-04-23 00:25 -9.69443 -40.50224 12829 ft 343 kts 164°
2026-04-23 00:25 -9.71765 -40.49621 13432 ft 347 kts 163°
2026-04-23 00:25 -9.74114 -40.49006 14008 ft 351 kts 163°
2026-04-23 00:26 -9.76492 -40.48384 14527 ft 355 kts 163°
2026-04-23 00:26 -9.78893 -40.47756 15050 ft 358 kts 163°
2026-04-23 00:26 -9.81319 -40.47120 15565 ft 362 kts 163°
2026-04-23 00:26 -9.83768 -40.46476 16069 ft 366 kts 163°